March 21, 2015
|
Penn Franklin Field - Philadelphia, PA

Men's 1500 Meters

Top↑
PL NAME YEAR TEAM TIME TIME
1 Alex Izewski   Unattached 4:00.59 3:58.19
2 Matt Kacyon   Unattached 4:00.74 4:20.00
3 John Tolbert FR-1 Lehigh 4:00.86 3:31.96
4 Kevin Smith SO-2 Lafayette 4:02.41 3:47.87
5 Ian Barnhill JR-3 La Salle 4:02.63 3:06.83
6 Christopher Mascetti FR-1 Lehigh 4:07.49 3:03.15
7 Stephen Keith SR-4 Lehigh 4:10.78 3:40.69
8 Andrew Haff SR-4 Lafayette 4:11.66 3:08.75
9 James Chappell FR-1 Lehigh 4:12.66 3:01.92
10 Jeff Craskey SO-2 Temple 4:14.11 4:44.61
11 Tyler Pressl FR-1 Lafayette 4:15.34 3:57.47
12 Taurai Augustin SO-2 Holy Family 4:20.59 5:33.56
13 Alex Gallo JR-3 La Salle 4:24.00 5:35.28
14 Ryan Magnus SO-2 La Salle 4:29.60 5:31.61
15 Matthew French JR-3 Holy Family 4:37.52 4:12.55
16 Kev Orwig FR-1 Holy Family 4:39.80 4:37.01
Men's 1500 Meters Section 1
PL NAME YEAR TEAM TIME TIME TIME TIME
1 Alex Izewski   Unattached 3:14.88 5:07.96 4:00.59 2:58.04
2 Matt Kacyon   Unattached 3:48.71 3:36.67 4:00.74 5:08.15
3 John Tolbert FR-1 Lehigh 3:10.28 3:51.23 4:00.86 4:27.36
4 Kevin Smith SO-2 Lafayette 3:35.75 3:28.48 4:02.41 4:02.41
5 Ian Barnhill JR-3 La Salle 5:13.00 4:41.45 4:02.63 3:09.26
6 Christopher Mascetti FR-1 Lehigh 4:22.34 2:55.72 4:07.49 4:24.82
7 Stephen Keith SR-4 Lehigh 3:20.63 3:20.63 4:10.78 4:40.88
9 James Chappell FR-1 Lehigh 4:12.66 3:49.92 4:12.66 5:05.72
Men's 1500 Meters Section 2
PL NAME YEAR TEAM TIME
8 Andrew Haff SR-4 Lafayette 4:11.66
10 Jeff Craskey SO-2 Temple 4:14.11
11 Tyler Pressl FR-1 Lafayette 4:15.34
12 Taurai Augustin SO-2 Holy Family 4:20.59
13 Alex Gallo JR-3 La Salle 4:24.00
14 Ryan Magnus SO-2 La Salle 4:29.60
15 Matthew French JR-3 Holy Family 4:37.52
16 Kev Orwig FR-1 Holy Family 4:39.80